[[{"header":{"parameterUnit":"m.s-1","parameterCategory":1,"la1":30.2991,"la2":30.254,"lo1":-89.0895,"lo2":-89.0444,"dy":0.0017,"dx":0.0017,"nx":28,"ny":28,"refTime":"2026-02-05T09:00:00:Z","depth":0,"parameterNumber":2,"parameterNumberName":"U-component_of_WINDS"},"data":[0,0,0,0,0,0,0,0,0,0,0,0,0,0,0,0,0,0,0,0,0,0,0,0,0,0,0,0,0,0,0,0,0,0,0,0,0,0,0,0,0,0,0,0,0,0,0,0,0,0,0,0,0,0,0,0,0,0,2.744,2.7441,0,2.7491,2.7492,2.7492,2.7475,2.7474,2.7473,2.7472,2.7523,2.7525,2.7527,0,0,0,0,0,0,0,0,0,0,0,0,0,2.7328,2.733,2.744,2.7441,2.7442,2.7491,2.7492,2.7493,2.7475,2.7474,2.7473,2.7471,2.7522,2.7525,2.7527,0,0,0,0,0,0,0,0,0,0,0,0,0,2.7378,2.7331,2.744,2.7439,2.7439,2.7491,2.7492,2.7493,2.7476,2.7474,2.7472,2.7471,2.7521,2.7524,2.7528,2.7583,0,0,2.7539,2.754,0,0,0,0,0,0,0,0,2.7375,2.7382,2.7439,2.7439,2.744,2.7475,2.7471,2.7523,2.7476,2.7462,2.7472,2.747,2.7508,2.7513,2.7526,2.7586,2.7588,2.7539,2.7541,2.7543,2.7544,0,0,0,0,0,0,0,2.7372,2.738,2.746,2.7439,2.744,2.7436,2.7441,2.7481,2.7494,2.7463,2.7462,2.7468,2.7508,2.7522,2.7527,2.7589,2.7539,2.7542,2.7544,2.7546,2.7698,2.77,0,0,0,0,0,0,2.7368,2.7377,2.7459,2.7462,2.7403,2.7439,2.7445,2.7465,2.7493,2.7496,2.7469,2.7467,2.7517,2.7523,2.7528,2.7596,2.7543,2.7546,2.7548,2.7696,2.7698,2.77,0,0,0,0,0,0,2.7366,2.7375,2.7457,2.7419,2.7429,2.7443,2.7466,2.7467,2.7482,2.7498,2.75,2.7482,2.7516,2.7523,2.757,2.7597,2.7548,2.7551,2.7694,2.7697,2.7699,2.773,0,0,0,0,0,0,2.7362,2.7375,2.7396,2.742,2.7431,2.7498,2.7468,2.747,2.7488,2.7485,2.751,2.7513,2.7515,2.7565,2.7574,2.7601,2.7554,2.7691,2.7695,2.7698,2.7727,2.7734,2.774,0,0,0,0,0,2.7358,2.7402,2.7397,2.7407,2.7458,2.7499,2.7506,2.7508,2.749,2.7512,2.7523,2.7512,2.7593,2.757,2.758,2.7608,2.769,2.7694,2.7698,2.7724,2.7732,2.7739,0,0,0,0,0,0,2.738,2.7405,2.74,2.7452,2.7474,2.7496,2.7523,2.7517,2.7544,2.754,2.7542,2.7547,2.7596,2.7607,2.758,2.7664,2.7639,2.7645,2.7655,2.7663,2.7669,2.7665,2.7557,0,0,0,0,0,2.7391,2.7422,2.7442,2.7487,2.7498,2.7509,2.7527,2.7527,2.7549,2.7558,2.7572,2.7594,2.7625,2.7645,2.7674,2.7729,2.7734,2.7754,2.776,2.7765,2.777,2.7801,2.781,2.7714,2.7714,2.7714,0,0,2.7413,2.7431,2.745,2.7492,2.7508,2.7541,2.7517,2.7552,2.7576,2.7563,2.7608,2.762,2.7645,2.7696,2.7719,2.7707,2.7798,2.7771,2.7775,2.7777,2.7806,2.7815,2.7823,2.7717,2.7717,2.7716,0,0,2.7471,2.7487,2.7526,2.7544,2.757,2.7578,2.7587,2.7611,2.7618,2.7664,2.7656,2.7685,2.7737,2.7755,2.7771,2.7838,2.7829,2.7847,2.788,2.791,2.7918,2.7924,2.7948,2.7957,2.7853,2.7853,2.7853,0,2.7495,2.7544,2.7547,2.7584,2.7602,2.7594,2.7633,2.765,2.7684,2.7697,2.7683,2.775,2.7766,2.7821,2.7838,2.7851,2.7862,2.7844,2.7916,2.7923,2.7929,2.7952,2.7961,2.7855,2.7855,2.7854,2.7854,0,2.7573,2.7607,2.7636,2.767,2.7692,2.7729,2.7739,2.776,2.776,2.7768,2.7815,2.7835,2.7868,2.7881,2.788,2.7937,2.7929,2.7916,2.789,2.7941,2.7962,2.7971,2.7858,2.7857,2.7856,2.7856,0,0,2.7643,2.768,2.769,2.7706,2.7735,2.7762,2.78,2.7833,2.7852,2.7876,2.7908,2.7954,2.7942,2.7961,2.7962,2.7988,2.804,2.7972,2.7973,2.7984,2.8105,2.8114,2.8124,2.8035,2.8037,2.8038,2.8102,0,2.7703,2.777,2.7775,2.7835,2.7867,2.786,2.7893,2.7915,2.7925,2.7954,2.7964,2.7997,2.7979,2.799,2.8016,2.8028,2.8064,2.8024,2.8065,2.8066,2.8058,2.8135,2.8144,2.8203,2.8111,2.8112,2.8113,0,2.7781,2.7808,2.7872,2.7898,2.7912,2.7941,2.7973,2.8,2.8025,2.803,2.8052,2.805,2.8089,2.8064,2.8118,2.809,2.8108,2.8116,2.8119,2.8122,2.8092,2.8139,2.8222,2.8231,2.8126,2.8125,2.8124,0,2.7825,2.7879,2.7924,2.7938,2.7969,2.799,2.8004,2.8027,2.8047,2.8075,2.8088,2.812,2.8137,2.8162,2.8169,2.8149,2.8223,2.8197,2.8228,2.8228,2.8243,2.8242,2.833,2.8256,2.8256,2.8256,2.8255,0,2.7891,2.793,2.7944,2.7972,2.8016,2.8022,2.8065,2.8078,2.8099,2.8129,2.8126,2.8154,2.8162,2.8192,2.8198,2.8242,2.825,2.8256,2.8257,2.8256,2.8255,2.8266,2.8262,2.8258,2.8257,2.8257,2.8257,0,2.7947,2.7958,2.8007,2.8034,2.8041,2.8072,2.8095,2.8122,2.8132,2.817,2.818,2.8196,2.8231,2.8241,2.8283,2.8287,2.8339,2.8337,2.8331,2.833,2.8361,2.8357,2.8458,2.8471,2.8389,2.839,2.8391,0,2.7987,2.8017,2.8048,2.8068,2.8083,2.8116,2.8137,2.8144,2.8166,2.8197,2.8221,2.8256,2.8284,2.8341,2.8356,2.8389,2.8387,2.842,2.8391,2.839,2.8387,2.8384,2.8387,2.8424,2.8425,2.8426,2.8427,0,2.8058,2.8062,2.8093,2.8126,2.8151,2.8177,2.8202,2.8218,2.823,2.8254,2.8291,2.8313,2.8357,2.8392,2.8425,2.844,2.8435,2.8436,2.8445,2.8443,2.8438,2.8441,2.8344,2.8433,2.8432,2.8432,2.8432,2.8431,2.8107,2.8134,2.816,2.8194,2.8214,2.8237,2.8264,2.8279,2.8309,2.8346,2.8349,2.8388,2.8414,2.8458,2.8475,2.8506,2.8496,2.8509,2.8512,2.8515,2.8517,2.8435,2.8512,2.8512,2.8512,2.8512,2.8512,0,2.8177,2.8194,2.8225,2.8261,2.8288,2.8282,2.831,2.8333,2.8368,2.8393,2.8421,2.8464,2.8498,2.8517,2.8551,2.8573,2.8572,2.8581,2.8579,2.8583,2.8524,2.8513,2.8582,2.8582,2.8582,2.8582,2.8582,2.8582,2.8216,2.8261,2.8269,2.8325,2.8341,2.838,2.8397,2.8419,2.8439,2.8486,2.8515,2.8528,2.855,2.8586,2.8618,2.8623,2.8635,2.8646,2.865,2.8594,2.8587,2.858,2.8569,2.8649,2.8649,2.8706,2.8706,2.8706]},{"header":{"parameterUnit":"m.s-1","parameterCategory":1,"la1":30.2991,"la2":30.254,"lo1":-89.0895,"lo2":-89.0444,"dy":0.0017,"dx":0.0017,"nx":28,"ny":28,"refTime":"2026-02-05T09:00:00:Z","depth":0,"parameterNumber":3,"parameterNumberName":"V-component_of_WINDS"},"data":[0,0,0,0,0,0,0,0,0,0,0,0,0,0,0,0,0,0,0,0,0,0,0,0,0,0,0,0,0,0,0,0,0,0,0,0,0,0,0,0,0,0,0,0,0,0,0,0,0,0,0,0,0,0,0,0,0,0,-6.513,-6.5132,0,-6.5317,-6.532,-6.5322,-6.5273,-6.5269,-6.5266,-6.5262,-6.5448,-6.5456,-6.5464,0,0,0,0,0,0,0,0,0,0,0,0,0,-6.4726,-6.4734,-6.513,-6.5133,-6.5135,-6.5317,-6.532,-6.5322,-6.5274,-6.5269,-6.5265,-6.5261,-6.5445,-6.5455,-6.5465,0,0,0,0,0,0,0,0,0,0,0,0,0,-6.4906,-6.4736,-6.513,-6.5133,-6.5135,-6.5317,-6.532,-6.5323,-6.5275,-6.5269,-6.5264,-6.5259,-6.5442,-6.5454,-6.5466,-6.5655,0,0,-6.5505,-6.551,0,0,0,0,0,0,0,0,-6.4896,-6.4921,-6.513,-6.5133,-6.5136,-6.5266,-6.5245,-6.5434,-6.5276,-6.5222,-6.5262,-6.5256,-6.5392,-6.5408,-6.5455,-6.5663,-6.5671,-6.5506,-6.5514,-6.5519,-6.5522,0,0,0,0,0,0,0,-6.4883,-6.4913,-6.5204,-6.5133,-6.5137,-6.5123,-6.5143,-6.5281,-6.5335,-6.5226,-6.5223,-6.5246,-6.5392,-6.5443,-6.5459,-6.5674,-6.5506,-6.5517,-6.5524,-6.5529,-6.6046,-6.6052,0,0,0,0,0,0,-6.487,-6.4903,-6.5198,-6.521,-6.5,-6.5135,-6.5157,-6.523,-6.5333,-6.5344,-6.525,-6.5243,-6.5424,-6.5444,-6.5465,-6.5693,-6.5519,-6.5531,-6.5538,-6.604,-6.6047,-6.6054,0,0,0,0,0,0,-6.4861,-6.4896,-6.5191,-6.5056,-6.5092,-6.5148,-6.523,-6.5237,-6.5288,-6.5352,-6.5361,-6.5293,-6.5421,-6.5448,-6.5608,-6.5699,-6.5536,-6.5548,-6.6033,-6.6042,-6.6051,-6.615,0,0,0,0,0,0,-6.485,-6.4894,-6.4967,-6.5058,-6.5099,-6.5333,-6.5236,-6.5244,-6.531,-6.5302,-6.5394,-6.5404,-6.5418,-6.559,-6.5621,-6.5713,-6.5558,-6.6025,-6.6037,-6.6048,-6.6139,-6.6161,-6.6181,0,0,0,0,0,-6.4835,-6.4986,-6.4971,-6.5007,-6.5192,-6.5338,-6.5362,-6.5377,-6.5318,-6.5391,-6.5433,-6.5401,-6.5684,-6.5607,-6.5641,-6.5739,-6.6019,-6.6034,-6.6047,-6.6129,-6.6157,-6.618,0,0,0,0,0,0,-6.4902,-6.4998,-6.4982,-6.5167,-6.5245,-6.5329,-6.5423,-6.5405,-6.55,-6.5488,-6.5501,-6.5522,-6.5687,-6.5728,-6.5641,-6.5926,-6.5843,-6.5864,-6.5893,-6.592,-6.5941,-6.5927,-6.5568,0,0,0,0,0,-6.4939,-6.5051,-6.5127,-6.5283,-6.5323,-6.5366,-6.543,-6.5435,-6.5516,-6.5548,-6.5601,-6.5679,-6.5785,-6.5854,-6.5956,-6.6144,-6.6163,-6.6228,-6.6249,-6.6266,-6.6284,-6.6387,-6.6417,-6.61,-6.61,-6.61,0,0,-6.5015,-6.5081,-6.515,-6.5298,-6.5359,-6.5473,-6.5394,-6.5518,-6.5603,-6.5566,-6.5722,-6.5764,-6.5851,-6.6027,-6.6107,-6.6067,-6.6376,-6.6283,-6.6297,-6.6306,-6.6405,-6.6435,-6.6461,-6.6109,-6.6108,-6.6106,0,0,-6.5212,-6.5273,-6.541,-6.5474,-6.5568,-6.5596,-6.5629,-6.5717,-6.5744,-6.5901,-6.5876,-6.5975,-6.6158,-6.6222,-6.6278,-6.65,-6.6475,-6.6532,-6.6642,-6.6742,-6.6767,-6.679,-6.6869,-6.6898,-6.6551,-6.6551,-6.6551,0,-6.5294,-6.5467,-6.5482,-6.561,-6.5675,-6.5649,-6.5787,-6.5847,-6.5968,-6.6013,-6.5967,-6.6197,-6.6254,-6.6444,-6.6499,-6.6545,-6.6582,-6.6522,-6.6763,-6.6785,-6.6806,-6.6882,-6.6912,-6.6557,-6.6557,-6.6556,-6.6555,0,-6.5564,-6.5684,-6.5783,-6.5904,-6.598,-6.6112,-6.6145,-6.6221,-6.6219,-6.6251,-6.6411,-6.6479,-6.6594,-6.6639,-6.6638,-6.683,-6.6802,-6.676,-6.6676,-6.6843,-6.6915,-6.6944,-6.6567,-6.6564,-6.6562,-6.6561,0,0,-6.5808,-6.5937,-6.5973,-6.6028,-6.613,-6.6223,-6.6353,-6.6467,-6.6532,-6.6616,-6.6725,-6.6881,-6.6843,-6.6907,-6.6912,-6.7,-6.7173,-6.6946,-6.6949,-6.6987,-6.7389,-6.7421,-6.7455,-6.7156,-6.7162,-6.7166,-6.7382,0,-6.6015,-6.6247,-6.6264,-6.6473,-6.6584,-6.6561,-6.6674,-6.6749,-6.6782,-6.688,-6.6916,-6.7027,-6.6967,-6.7006,-6.7092,-6.7133,-6.7253,-6.7118,-6.7257,-6.7262,-6.7237,-6.7492,-6.7526,-6.7726,-6.741,-6.7414,-6.7418,0,-6.6288,-6.6383,-6.6604,-6.6691,-6.6739,-6.6841,-6.6947,-6.7042,-6.7125,-6.7143,-6.7215,-6.7209,-6.7341,-6.7252,-6.7434,-6.7342,-6.7399,-6.7428,-6.7436,-6.745,-6.735,-6.7513,-6.779,-6.7821,-6.7462,-6.7458,-6.7455,0,-6.6445,-6.6628,-6.6784,-6.6832,-6.6938,-6.701,-6.7057,-6.7135,-6.7203,-6.7295,-6.734,-6.7445,-6.7503,-6.7585,-6.7606,-6.754,-6.7788,-6.7701,-6.7806,-6.7806,-6.7859,-6.7856,-6.815,-6.7896,-6.7895,-6.7895,-6.7894,0,-6.6675,-6.681,-6.6857,-6.6953,-6.7104,-6.7121,-6.727,-6.7312,-6.7382,-6.7485,-6.747,-6.7566,-6.7589,-6.7689,-6.7706,-6.7854,-6.788,-6.7898,-6.7901,-6.79,-6.7898,-6.7938,-6.7925,-6.7903,-6.7901,-6.7899,-6.7898,0,-6.6876,-6.6913,-6.7081,-6.7168,-6.7193,-6.7301,-6.7375,-6.7466,-6.7498,-6.7628,-6.7659,-6.7709,-6.7826,-6.7856,-6.7995,-6.8006,-6.8182,-6.8171,-6.8155,-6.8154,-6.8258,-6.8248,-6.8589,-6.8635,-6.835,-6.8352,-6.8355,0,-6.7021,-6.7125,-6.7224,-6.7293,-6.7344,-6.7455,-6.7525,-6.7546,-6.7619,-6.7722,-6.7801,-6.7917,-6.8011,-6.8199,-6.8246,-6.8352,-6.8345,-6.8457,-6.836,-6.8356,-6.8347,-6.8341,-6.8352,-6.8475,-6.8478,-6.8481,-6.8483,0,-6.7274,-6.7287,-6.739,-6.7499,-6.7584,-6.7671,-6.7753,-6.781,-6.7842,-6.7925,-6.8046,-6.8119,-6.8262,-6.8377,-6.8485,-6.8531,-6.8513,-6.8513,-6.8543,-6.8543,-6.853,-6.8539,-6.8205,-6.8505,-6.8503,-6.8501,-6.85,-6.8499,-6.7452,-6.7544,-6.7629,-6.7743,-6.7808,-6.7886,-6.7977,-6.8021,-6.8123,-6.8243,-6.8249,-6.838,-6.846,-6.8603,-6.8656,-6.8758,-6.8723,-6.8767,-6.8778,-6.8789,-6.8798,-6.8513,-6.8777,-6.8776,-6.8776,-6.8775,-6.8775,0,-6.7705,-6.7758,-6.7864,-6.7982,-6.8072,-6.8049,-6.8139,-6.8216,-6.8333,-6.841,-6.8503,-6.8642,-6.8754,-6.8811,-6.8921,-6.8992,-6.8986,-6.902,-6.9015,-6.9026,-6.8822,-6.8785,-6.9023,-6.9023,-6.9023,-6.9023,-6.9023,-6.9023,-6.7847,-6.8002,-6.8025,-6.8212,-6.8264,-6.8395,-6.8448,-6.852,-6.8582,-6.8739,-6.8833,-6.8869,-6.8938,-6.9054,-6.9155,-6.9168,-6.921,-6.9248,-6.9258,-6.9066,-6.9041,-6.9016,-6.8982,-6.9257,-6.9257,-6.9454,-6.9455,-6.9457]}]]